Regional Weather Roundup
Issued by NWS

Home | Current Version | Previous Version | Graphics & Text | Print | Product List | Glossary On
Versions: 1 2 3 4 5 6 7 8 9 10 11 12 13 14 15 16 17 18 19 20 21 22 23 24 25 26 27 28 29 30 31 32 33 34 35 36 37 38 39 40 41 42 43 44 45 46 47 48 49 50
000
ASUS43 KLOT 251512
RWRIL

ILLINOIS REGIONAL WEATHER ROUNDUP
NATIONAL WEATHER SERVICE CHICAGO/ROMEOVILLE IL
1000 AM CDT MON MAY 25 2015

NOTE: "FAIR" INDICATES FEW OR NO CLOUDS BELOW 12,000 FEET WITH NO
SIGNIFICANT WEATHER AND/OR OBSTRUCTIONS TO VISIBILITY.

* THESE STATIONS ARE NOT UNDER NWS QUALITY CONTROL. THEY ALSO MAY NOT
  REPORT WEATHER SUCH AS PRECIPITATION OR FOG.

ILZ001-002-007-009-015-016-024-251600-
NORTHWEST ILLINOIS

CITY           SKY/WX    TMP DP  RH WIND       PRES   REMARKS
MOLINE         CLOUDY    69  62  78 W13G23    29.87R
STERLING*      CLOUDY    70  63  78 W14G22    29.86R
SAVANNA*       DRIZZLE   67  62  84 SW15G21   29.85R
$$

ILZ003-004-008-010-011-017-018-251600-
NORTH CENTRAL ILLINOIS

CITY           SKY/WX    TMP DP  RH WIND       PRES   REMARKS
ROCKFORD       PTSUNNY   71  62  73 SW13G24   29.84S
FREEPORT*      PTSUNNY   68  62  82 SW20G26   29.84S
ROCHELLE*      CLOUDY    69  64  84 W21G26    29.86S
DE KALB*       CLOUDY    67  63  87 SW17G23   29.87R
PERU*          HVY RAIN  68  64  84 SW17G24   29.88R
$$

ILZ005-006-012>014-019>023-251600-
NORTHEAST ILLINOIS

CITY           SKY/WX    TMP DP  RH WIND       PRES   REMARKS
CHICAGO-OHARE  LGT RAIN  70  64  81 SW18G31   29.85S
CHICAGO-MIDWAY PTSUNNY   74  66  76 SW15      29.86S
AURORA         LGT RAIN  69  64  84 S12       29.87R
LANSING*       LGT RAIN  67  64  87 SW20G26   29.90R
JOLIET*        LGT RAIN  67  65  93 SW14G21   29.89R
WAUKEGAN       HVY RAIN  68  64  87 SW12G35   29.83R FOG
DUPAGE AIRPORT LGT RAIN  67  64  90 SW13      29.86R
KANKAKEE*      PTSUNNY   75  65  70 SW28G39   29.91S
WHEELING       CLOUDY    72  62  71 SW18G32   29.86R
MORRIS*        CLOUDY    67  65  92 SW14G22   29.87R
ROMEOVILLE*    RAIN      65  63  90 SW20G28   29.89R
NORTHERLY ISL    N/A     73  63  70 S13         N/A
$$

LMZ740>746-251600-
SOUTHERN LAKE MICHIGAN

STATION/POSITION SKY/WX   TEMP    WIND        PRES    VSBY  WAVE
                          AIR SEA DIR/SP/G                  HT/PER
                          (F)     (DEG/KT/KT) (MB)    (MI)  (FT/S)
SOUTHERN BUOY              49 38  180/ 14/ 16 1010.8F         2/ 4
HARRISON CRIB              71     200/ 27/ 33   N/A
BURNHAM HARBOR             73     180/ 11/ 23   N/A
CALUMET HARBOR             72     180/ 12/ 19   N/A
BURNS HARBOR               72     200/ 19/ 26 1012.5S
MICHIGAN CITY              72     170/ 19/ 25   N/A
MICHIGAN CITY 6N           67 52  220/ 16/ 23   N/A           3/ 3
ST. JOSEPH                 64 54  230/ 14/ 19   N/A           3/ 3
$$

ILZ025>027-034>036-040-047-049-050-058-095>099-251600-
WEST-CENTRAL ILLINOIS

CITY           SKY/WX    TMP DP  RH WIND       PRES   REMARKS
QUINCY         PTSUNNY   69  62  78 SW10      29.96S
GALESBURG*     CLOUDY    69  64  84 SW12      29.90R
MACOMB*        CLOUDY    69  64  84 SW17G25   29.95R
JACKSONVILLE*  CLOUDY    71  63  77 SW15G25   29.98R
PITTSFIELD*    PTSUNNY   69  62  78 SW13      29.99F
$$

ILZ028>032-037-038-041>044-048-051>054-059>061-251600-
CENTRAL ILLINOIS

CITY           SKY/WX    TMP DP  RH WIND       PRES   REMARKS
PONTIAC        LGT RAIN  68  66  94 SW25      29.92S
BLOOMINGTON    PTSUNNY   71  64  78 SW30G36   29.95R
DECATUR        CLOUDY    73  61  65 SW22G31   29.98R
PEORIA         CLOUDY    71  63  75 W13       29.92R
LACON*         CLOUDY    66  63  87 SW12G20   29.90R
LINCOLN*       CLOUDY    72  63  74 SW12G22   29.94R
SPRINGFIELD    CLOUDY    71  61  70 SW15G29   29.98R
TAYLORVILLE    CLOUDY    70  61  73 SW21      30.00R
$$

ILZ033-039-045-046-055>057-062-063-251600-
EAST-CENTRAL ILLINOIS

CITY           SKY/WX    TMP DP  RH WIND       PRES   REMARKS
CHAMPAIGN      CLOUDY    76  62  62 SW37G46   29.97R
DANVILLE*      CLOUDY    74  66  76 SW24G32   29.96R
RANTOUL*       CLOUDY    76  63  65 SW29G36   29.96R
MATTOON        CLOUDY    71  66  84 S17G24    30.01R
PARIS*         CLOUDY    74  66  76 S23G29    30.03R
$$

ILZ079-100>102-251600-
SOUTHWEST ILLINOIS

CITY           SKY/WX    TMP DP  RH WIND       PRES   REMARKS
BELLEVILLE     PTSUNNY   76  69  78 SW10      30.01R
CAHOKIA*       PTSUNNY   74  64  71 SW9       30.02R
SPARTA*        PTSUNNY   74  69  83 SW6       30.05R
$$

ILZ064>066-069>071-074>076-080>082-084>086-088>090-092>094-251600-
SOUTH-CENTRAL ILLINOIS

CITY           SKY/WX    TMP DP  RH WIND       PRES   REMARKS
CARBONDALE     CLOUDY    71  65  81 S17       30.06R
CAIRO*         CLOUDY    71  68  91 S9G18     30.08S
EFFINGHAM*     CLOUDY    73  65  76 S16G22    30.04S
MARION         CLOUDY    72  66  83 S15       30.08R
MT. VERNON     CLOUDY    72  64  78 S13       30.07R
CENTRALIA*     PTSUNNY   74  66  76 S15       30.05R
SALEM*         PTSUNNY   74  68  79 S15       30.04R
METROPOLIS*    CLOUDY    71  71 100 S8        30.08F
$$

ILZ067-068-072-073-078-083-087-091-251600-
SOUTHEAST ILLINOIS

CITY           SKY/WX    TMP DP  RH WIND       PRES   REMARKS
LAWRENCEVILLE  CLOUDY    71  67  87 S15       30.07R
FLORA*         LGT RAIN  70  66  87 SW8       30.06R
FAIRFIELD*     CLOUDY    71  67  87 S13G18    30.06R
HARRISBURG*    CLOUDY    71  67  87 S12G22    30.09R
ROBINSON*      CLOUDY    70  66  88 S14G21    30.06S
CARMI*         CLOUDY    72  64  78 S20       30.08R
$$

ABBREVIATIONS USED IN REMARKS
   TC - TEMPERATURE IN CELSIUS
  WCI - WIND CHILL INDEX
   HX - HEAT INDEX
  VSB - VISIBILITY
$$



USA.gov is the U.S. government's official web portal to all federal, state and local government web resources and services.